Showing default

KUIPER-00357, 68866

Orbit data source: Space-Track

KUIPER-00357, 68866 is an American payload satellite in LEO that was launched on Tue, 28 Apr 2026 UTC launched from the Air Force Eastern Test Range (AFETR). Payload-class satellites include a variety of spacecraft equipped with specific instruments for various scientific and technological missions. These include communications satellites like Starlink; space stations such as the ISS; scientific satellites like the Hubble; Earth observation satellites from companies like Planet Labs, Umbra, and HawkEye 360; GPS; miniature CubeSats for education and research; and military/defense satellites.

Loading next visibility...
Identifier
68866, 2026-095C
Orbit
LEO
Country
Flag of USUS
Related business
None
Manufacturer
Unknown
Mission
Operational spacecraft
Bus & Motor
Unknown
Mass
Unknown
Launch date (UTC)
2026-04-28 (4 days ago)
Launch vehicle
Unknown
Launch site
Air Force Eastern Test Range (AFETR)
Object type
Payload
Rocket body
Debris
Shape & HBR
Unknown
Radar Cross Section
RCS unknown

Expand to show TLE details & history
Last TLE update: 7 hours ago

TLE from 7 hours ago
0 KUIPER-00357
1 68866U 26095C   26122.16670139  .00001493  00000-0  49938-4 0  9996
2 68866  51.8814 104.8878 0003819 101.0849 110.4324 15.37853603  1583
Epoch: 2026-05-02T04:00Z
TLE epoch observation values (Epoch: 2026-05-02T04:00:03.000Z)
Latitude
-24.50755°
Longitude
25.6242°
Altitude
460.327 km
Speed
7.636 km/s
True Right ascension
20h 22m 54s
True Declination
-24° 22' 21"
Sunlit
Object was in daylight at epoch
Visualization orbit readout
Latitude
Unknown
Longitude
Unknown
Altitude
Unknown
Speed
Unknown
Apparent Right ascension
Unknown
Apparent Declination
Unknown
Sunlit
N/A
Visualization observer readout
Local Sidereal Time
18:40:15
Azimuth
Unknown
Elevation
Unknown
Doppler factor
Unknown
Orbital elements
Apogee altitude
455.532 km
Perigee altitude
450.315 km
Semi-major axis
6,831.06 km
Eccentricity
0.00038
Inclination
51.8814°
RAAN
104.8878°
Arg. of periapsis
101.0849°
True anomaly
110.4734°
Mean anomaly
110.4324°
Eccentric anomaly
110.4529°
Mean motion
3.84424 °/min
Orbital period
93.65 mins
BSTAR
0.000049938
Loading maneuver chart data...
Computing Atmospheric mass density...
Loading historical data...
Loading historical data...
Loading historical data...
Loading historical data...
Loading historical data...
Loading historical data...
Loading historical data...

Documentation

Showing up to 5 results
|